Showing default

EZIE-B, 63250

Orbit data source: Space-Track

EZIE-B, 63250 is an American payload satellite in SSO that was launched on Sat, 15 Mar 2025 UTC via an FALCON 9 launch vehicle from the Air Force Western Test Range (AFWTR). Payload-class satellites include a variety of spacecraft equipped with specific instruments for various scientific and technological missions. These include communications satellites like Starlink; space stations such as the ISS; scientific satellites like the Hubble; Earth observation satellites from companies like Planet Labs, Umbra, and HawkEye 360; GPS; miniature CubeSats for education and research; and military/defense satellites.

Loading next visibility...
Identifier
63250, 2025-052AS
Orbit
SSO
Country
Flag of USUS
Related business
Manufacturer
APL
Mission
Operational Civil Science
Bus & Motor
CUBESAT 6U, Unknown motor
Mass
~10 kg wet, ~10 kg dry
Launch date (UTC)
2025-03-15 (1 year ago)
Launch vehicle
FALCON 9
Launch site
Air Force Western Test Range (AFWTR)
Object type
Payload
Rocket body
Debris
Shape & HBR
Box, 0.4 m
Radar Cross Section
0.035 m², Small (<0.1 m²)

Expand to show TLE details & history
Last TLE update: 7 hours ago

TLE from 7 hours ago
0 EZIE-B
1 63250U 25052AS  26121.18150222  .00007832  00000-0  68670-3 0  9993
2 63250  97.6960  14.1585 0003784  22.5397 337.5990 14.96911425 61633
Epoch: 2026-05-01T04:21Z
TLE epoch observation values (Epoch: 2026-05-01T04:21:21.791Z)
Latitude
-0.00008°
Longitude
89.70027°
Altitude
577.063 km
Speed
7.573 km/s
True Right ascension
00h 56m 38s
True Declination
0° 00' 00"
Sunlit
Object was in daylight at epoch
Visualization orbit readout
Latitude
Unknown
Longitude
Unknown
Altitude
Unknown
Speed
Unknown
Apparent Right ascension
Unknown
Apparent Declination
Unknown
Sunlit
N/A
Visualization observer readout
Local Sidereal Time
19:21:19
Azimuth
Unknown
Elevation
Unknown
Doppler factor
Unknown
Orbital elements
Apogee altitude
576.086 km
Perigee altitude
570.825 km
Semi-major axis
6,951.592 km
Eccentricity
0.00038
Inclination
97.696°
RAAN
14.1585°
Arg. of periapsis
22.5397°
True anomaly
337.58247°
Mean anomaly
337.599°
Eccentric anomaly
337.59073°
Mean motion
3.7447 °/min
Orbital period
96.14 mins
BSTAR
0.0006867
Loading maneuver chart data...
Computing Atmospheric mass density...
Loading historical data...
Loading historical data...
Loading historical data...
Loading historical data...
Loading historical data...
Loading historical data...
Loading historical data...

Documentation

Showing up to 5 results
|